This is the latest recevied weather packets stored in our database for station/object K0APR. If no packets are shown the sender has not sent any weather packets the latest 10 day(s).
| Time | Temp. | Humidity | Pressure | Rain* | Wind** | Luminosity | Snow |
|---|---|---|---|---|---|---|---|
| 1777762052 | 20° C | 30% | 1010.9 hPa | 0 mm | - | 107 W/m² | - |
| 1777761749 | 20° C | 29% | 1011.2 hPa | 0 mm | - | 104 W/m² | - |
| 1777761446 | 20° C | 30% | 1010.9 hPa | 0 mm | - | 104 W/m² | - |
| 1777761144 | 20° C | 29% | 1011.2 hPa | 0 mm | - | 117 W/m² | - |
| 1777760841 | 20° C | 30% | 1010.9 hPa | 0 mm | - | 137 W/m² | - |
| 1777760538 | 20° C | 31% | 1011.2 hPa | 0 mm | - | 145 W/m² | - |
| 1777760234 | 20° C | 29% | 1011.2 hPa | 0 mm | - | 175 W/m² | - |
| 1777759931 | 20.56° C | 28% | 1011.2 hPa | 0 mm | - | 187 W/m² | - |
| 1777759627 | 20.56° C | 28% | 1011.2 hPa | 0 mm | - | 340 W/m² | - |
| 1777759323 | 20.56° C | 30% | 1011.2 hPa | 0 mm | - | 236 W/m² | - |
| 1777759021 | 20.56° C | 30% | 1012 hPa | 0 mm | - | 173 W/m² | - |
| 1777758717 | 20° C | 30% | 1012 hPa | 0 mm | - | 268 W/m² | - |
| 1777758415 | 20° C | 30% | 1012 hPa | 0 mm | - | 223 W/m² | - |
| 1777758112 | 19.44° C | 32% | 1012 hPa | 0 mm | - | 217 W/m² | - |
| 1777757809 | 19.44° C | 32% | 1012 hPa | 0 mm | - | 193 W/m² | - |
| 1777757506 | 18.89° C | 32% | 1012.3 hPa | 0 mm | - | 167 W/m² | - |
| 1777757205 | 18.89° C | 32% | 1012.3 hPa | 0 mm | - | 192 W/m² | - |
| 1777756903 | 19.44° C | 32% | 1012.3 hPa | 0 mm | - | 169 W/m² | - |
| 1777756598 | 19.44° C | 32% | 1012.3 hPa | 0 mm | - | 138 W/m² | - |
| 1777756295 | 19.44° C | 32% | 1012.7 hPa | 0 mm | - | 138 W/m² | - |
| 1777755993 | 18.89° C | 33% | 1012.7 hPa | 0 mm | - | 125 W/m² | - |
| 1777755690 | 19.44° C | 32% | 1013 hPa | 0 mm | - | 130 W/m² | - |
| 1777755386 | 19.44° C | 31% | 1013 hPa | 0 mm | - | 180 W/m² | - |
| 1777755083 | 20° C | 32% | 1013 hPa | 0 mm | - | 255 W/m² | - |
| 1777754780 | 20° C | 32% | 1013 hPa | 0 mm | - | 280 W/m² | - |
* Rain latest hour (hover to see other rain measurements)
** Current wind speed in m/s (hover to see current wind gust speed)